[[{"header":{"parameterUnit":"m.s-1","parameterCategory":1,"la1":30.2992,"la2":30.254,"lo1":-89.0895,"lo2":-89.0443,"dy":0.0025,"dx":0.0025,"nx":19,"ny":19,"refTime":"2026-04-20T21:00:00:Z","depth":0,"parameterNumber":2,"parameterNumberName":"U-component_of_WINDS"},"data":[0,0,0,-4.2722,-4.2723,-4.2758,-4.2758,-4.2813,-4.2813,0,0,0,0,0,0,0,0,0,0,0,-4.2717,-4.2718,-4.2722,-4.2723,-4.2758,-4.2758,-4.2813,-4.2813,0,0,0,0,0,0,0,0,0,0,0,-4.2717,-4.2718,-4.2718,-4.2723,-4.2758,-4.2758,-4.2812,-4.2782,0,0,0,0,0,0,0,0,0,0,-4.2747,-4.2748,-4.2717,-4.2718,-4.2723,-4.2758,-4.2758,-4.2781,-4.2784,-4.2801,0,-4.2817,0,-4.2816,-4.2818,-4.2818,0,0,0,-4.2718,-4.2745,-4.2749,-4.2718,-4.2724,-4.2758,-4.2741,-4.2783,-4.2787,-4.2806,-4.2818,-4.282,-4.2817,-4.2818,-4.2818,-4.2929,-4.293,0,0,-4.2716,-4.2726,-4.2747,-4.2752,-4.2747,-4.274,-4.2742,-4.2785,-4.2799,-4.2818,-4.2821,-4.2818,-4.2818,-4.2819,-4.2928,-4.2929,0,0,0,-4.2714,-4.2725,-4.2728,-4.275,-4.2756,-4.2741,-4.2743,-4.2797,-4.2797,-4.2821,-4.2819,-4.2819,-4.282,-4.2927,-4.2929,-4.2973,0,0,0,-4.2712,-4.2724,-4.2728,-4.2734,-4.2755,-4.2777,-4.2755,-4.2794,-4.2799,-4.2818,-4.2819,-4.282,-4.2927,-4.2928,-4.297,-4.2992,0,0,0,-4.2713,-4.2724,-4.2731,-4.2735,-4.275,-4.2776,-4.2778,-4.2795,-4.2797,-4.2818,-4.282,-4.2926,-4.2928,-4.2967,-4.2987,-4.3023,0,0,0,-4.2716,-4.2769,-4.2732,-4.2791,-4.275,-4.2804,-4.2778,-4.2817,-4.284,-4.2819,-4.2927,-4.2928,-4.2967,-4.2985,-4.3021,-4.3054,-4.3069,0,0,-4.2789,-4.2779,-4.2813,-4.278,-4.2843,-4.2797,-4.2867,-4.2879,-4.2872,-4.291,-4.2913,-4.2971,-4.2987,-4.3023,-4.3155,-4.3167,0,0,0,-4.2839,-4.2863,-4.2878,-4.2901,-4.2912,-4.2923,-4.2923,-4.2927,-4.296,-4.2894,-4.2994,-4.3003,-4.3024,-4.3039,-4.305,-4.3066,-4.2936,-4.2936,-4.2936,-4.2954,-4.2944,-4.2999,-4.2993,-4.3016,-4.3017,-4.3034,-4.304,-4.3022,-4.3046,-4.3057,-4.3138,-4.3157,-4.3164,-4.3182,-4.3075,-4.3075,-4.3075,-4.3075,-4.3059,-4.3092,-4.3068,-4.3114,-4.3102,-4.314,-4.3144,-4.313,-4.3164,-4.3129,-4.3146,-4.3107,-4.3178,-4.3193,-4.3079,-4.3078,-4.3078,-4.3077,-4.3077,-4.3132,-4.3146,-4.3152,-4.3184,-4.3211,-4.3203,-4.3237,-4.3226,-4.3216,-4.3233,-4.3243,-4.3242,-4.3239,-4.3239,-4.3239,-4.324,-4.324,-4.324,-4.324,-4.3205,-4.321,-4.324,-4.3258,-4.3271,-4.3288,-4.3291,-4.3305,-4.3316,-4.3305,-4.3305,-4.3285,-4.3188,-4.3163,-4.3245,-4.3244,-4.3243,-4.3243,-4.3243,-4.3312,-4.3286,-4.3333,-4.3347,-4.3367,-4.3395,-4.3381,-4.3409,-4.3419,-4.3436,-4.3413,-4.3344,-4.3332,-4.3324,-4.3303,-4.3415,-4.3415,-4.3415,-4.3416,-4.3372,-4.3366,-4.3411,-4.3435,-4.3456,-4.3449,-4.3502,-4.3506,-4.3506,-4.3511,-4.3494,-4.3466,-4.3458,-4.3451,-4.344,-4.342,-4.3561,-4.3561,-4.3561,-4.3437,-4.3433,-4.348,-4.348,-4.3496,-4.351,-4.3559,-4.3587,-4.3582,-4.3566,-4.3515,-4.3509,-4.3464,-4.345,-4.3431,-4.3414,-4.3377,0,0]},{"header":{"parameterUnit":"m.s-1","parameterCategory":1,"la1":30.2992,"la2":30.254,"lo1":-89.0895,"lo2":-89.0443,"dy":0.0025,"dx":0.0025,"nx":19,"ny":19,"refTime":"2026-04-20T21:00:00:Z","depth":0,"parameterNumber":3,"parameterNumberName":"V-component_of_WINDS"},"data":[0,0,0,4.3716,4.3716,4.3735,4.3735,4.3756,4.3756,0,0,0,0,0,0,0,0,0,0,0,4.3709,4.3709,4.3716,4.3716,4.3735,4.3735,4.3756,4.3756,0,0,0,0,0,0,0,0,0,0,0,4.3709,4.3709,4.3709,4.3717,4.3735,4.3735,4.3756,4.3743,0,0,0,0,0,0,0,0,0,0,4.3725,4.3717,4.3709,4.3709,4.3717,4.3735,4.3735,4.3742,4.3743,4.3746,0,4.3749,0,4.3753,4.3757,4.3757,0,0,0,4.3717,4.3716,4.3722,4.3709,4.3717,4.3735,4.3727,4.3743,4.3744,4.3748,4.3749,4.375,4.3753,4.3757,4.3757,4.3773,4.3773,0,0,4.3716,4.3711,4.3721,4.3723,4.3721,4.3726,4.3728,4.3744,4.3744,4.3749,4.375,4.3753,4.3757,4.3758,4.3773,4.3773,0,0,0,4.3713,4.371,4.3717,4.3723,4.3726,4.3727,4.3728,4.3743,4.3746,4.3751,4.3754,4.3757,4.3758,4.3773,4.3773,4.3771,0,0,0,4.3712,4.3708,4.3716,4.3713,4.3726,4.3735,4.3727,4.3745,4.3747,4.3754,4.3757,4.3758,4.3773,4.3773,4.3771,4.377,0,0,0,4.3708,4.3708,4.371,4.3713,4.3721,4.3735,4.3739,4.3745,4.3749,4.3757,4.3758,4.3773,4.3773,4.3771,4.377,4.3773,0,0,0,4.3702,4.3707,4.371,4.3717,4.3721,4.3734,4.3739,4.3748,4.3755,4.3758,4.3773,4.3773,4.3771,4.377,4.3773,4.3775,4.3775,0,0,4.3705,4.3707,4.3711,4.3715,4.3726,4.3732,4.3743,4.3753,4.3757,4.3767,4.3768,4.3771,4.377,4.3773,4.3779,4.378,0,0,0,4.371,4.3713,4.3718,4.3725,4.3734,4.3742,4.3752,4.3756,4.3765,4.3762,4.3773,4.3773,4.3775,4.3776,4.3776,4.3778,4.3773,4.3773,4.3773,4.3706,4.3714,4.3722,4.3732,4.3739,4.375,4.3756,4.3763,4.3767,4.377,4.3772,4.3776,4.3777,4.3777,4.3779,4.3774,4.3774,4.3774,4.3774,4.3711,4.3717,4.3724,4.3735,4.3743,4.3751,4.3762,4.3765,4.3773,4.3774,4.3776,4.3775,4.3777,4.3779,4.3774,4.3774,4.3774,4.3774,4.3774,4.3709,4.3713,4.3719,4.3732,4.3741,4.3751,4.376,4.3766,4.3772,4.3774,4.3778,4.3778,4.3779,4.3776,4.3776,4.3776,4.3776,4.3776,4.3776,4.3704,4.3711,4.3718,4.373,4.3737,4.3746,4.3759,4.3765,4.3773,4.3777,4.3777,4.3781,4.3776,4.3775,4.3776,4.3776,4.3776,4.3776,4.3776,4.3705,4.3707,4.3717,4.3724,4.374,4.3748,4.3757,4.377,4.3776,4.378,4.3784,4.378,4.3781,4.3781,4.378,4.3783,4.3783,4.3783,4.3783,4.3703,4.3705,4.3719,4.373,4.3741,4.3751,4.3763,4.3773,4.3783,4.3787,4.3788,4.3787,4.3787,4.3789,4.3788,4.3787,4.3792,4.3792,4.3792,4.3704,4.3709,4.3718,4.373,4.3743,4.3753,4.3765,4.3776,4.3788,4.3792,4.3791,4.379,4.3789,4.3788,4.3791,4.3791,4.3789,0,0]}]]